TimeCDT,TemperatureF,Dew PointF,Humidity,Sea Level PressureIn,VisibilityMPH,Wind Direction,Wind SpeedMPH,Gust SpeedMPH,PrecipitationIn,Events,Conditions,WindDirDegrees,DateUTC
12:48 AM,71.6,71.6,100,29.85,7.0,Calm,Calm,-,N/A,,Mostly Cloudy,0,2013-09-09 05:48:00
1:48 AM,71.6,69.8,94,29.86,7.0,Calm,Calm,-,N/A,,Scattered Clouds,0,2013-09-09 06:48:00
2:53 AM,71.6,71.6,100,29.85,7.0,East,6.9,-,N/A,,Mostly Cloudy,80,2013-09-09 07:53:00
3:48 AM,71.6,71.6,100,29.87,7.0,East,3.5,-,N/A,,Scattered Clouds,80,2013-09-09 08:48:00
4:44 AM,71.6,71.6,100,29.85,7.0,Calm,Calm,-,N/A,,Mostly Cloudy,0,2013-09-09 09:44:00
5:46 AM,69.8,69.8,100,29.87,7.0,Calm,Calm,-,N/A,,Mostly Cloudy,0,2013-09-09 10:46:00
6:52 AM,71.6,71.6,100,29.85,8.0,Calm,Calm,-,N/A,,Mostly Cloudy,0,2013-09-09 11:52:00
7:42 AM,73.4,73.4,100,29.89,7.0,Calm,Calm,-,N/A,,Mostly Cloudy,0,2013-09-09 12:42:00
8:46 AM,77.0,75.2,94,29.90,7.0,ESE,6.9,-,N/A,,Mostly Cloudy,110,2013-09-09 13:46:00
9:49 AM,77.0,75.2,94,29.94,7.0,ESE,4.6,-,N/A,,Mostly Cloudy,120,2013-09-09 14:49:00
10:40 AM,80.6,75.2,84,29.92,7.0,SE,9.2,-,N/A,,Mostly Cloudy,140,2013-09-09 15:40:00
11:47 AM,80.6,75.2,84,29.89,7.0,SSE,6.9,-,N/A,,Mostly Cloudy,150,2013-09-09 16:47:00
12:48 PM,78.8,75.2,89,29.86,7.0,SSE,5.8,-,N/A,,Mostly Cloudy,160,2013-09-09 17:48:00
1:44 PM,80.6,75.2,84,29.87,7.0,SE,10.4,-,N/A,,Mostly Cloudy,140,2013-09-09 18:44:00
2:41 PM,84.2,75.2,74,29.85,7.0,SE,8.1,-,N/A,,Mostly Cloudy,140,2013-09-09 19:41:00
3:44 PM,73.4,73.4,100,29.89,6.0,NE,9.2,-,N/A,,Mostly Cloudy,50,2013-09-09 20:44:00
4:41 PM,71.6,71.6,100,29.86,5.0,NE,4.6,-,N/A,,Mostly Cloudy,50,2013-09-09 21:41:00
4:58 PM,71.6,71.6,100,29.87,0.5,East,9.2,20.7,N/A,Rain,Heavy Rain,80,2013-09-09 21:58:00
5:26 PM,69.8,69.8,100,29.87,5.0,NE,4.6,-,N/A,,Overcast,40,2013-09-09 22:26:00
5:45 PM,69.8,69.8,100,29.87,5.0,NNE,3.5,-,N/A,,Overcast,30,2013-09-09 22:45:00
6:42 PM,71.6,71.6,100,29.87,4.0,NE,3.5,-,N/A,,Overcast,50,2013-09-09 23:42:00
7:41 PM,71.6,71.6,100,29.88,5.0,NE,3.5,-,N/A,,Overcast,40,2013-09-10 00:41:00
8:47 PM,71.6,71.6,100,29.90,6.0,Calm,Calm,-,N/A,,Overcast,0,2013-09-10 01:47:00
9:40 PM,71.6,69.8,94,29.95,6.0,East,3.5,-,N/A,,Overcast,80,2013-09-10 02:40:00
10:40 PM,71.6,69.8,94,29.92,6.0,Calm,Calm,-,N/A,,Overcast,0,2013-09-10 03:40:00
11:40 PM,69.8,68.0,94,29.90,7.0,Calm,Calm,-,N/A,,Overcast,0,2013-09-10 04:40:00